[[{"header":{"parameterUnit":"m.s-1","parameterCategory":2,"la1":30.2991,"la2":30.254,"lo1":-89.0895,"lo2":-89.0444,"dy":0.0017,"dx":0.0017,"nx":28,"ny":28,"refTime":"2025-07-23T21:00:00:Z","depth":"0","parameterNumber":2,"parameterNumberName":"U-component_of_CURRENTS"},"data":[0,0,0,0,0,0,0,0,0,0,0,0,0,0,0,0,0,0,0,0,0,0,0,0,0,0,0,0,0,0,0,0,0,0,0,0,0,0,0,0,0,0,0,0,0,0,0,0,0,0,0,0,0,0,0,0,0,0,-0.3319,-0.3322,0,-0.3477,-0.3478,-0.3478,-0.3506,-0.3506,-0.3506,-0.3507,-0.3496,-0.3495,-0.3494,0,0,0,0,0,0,0,0,0,0,0,0,0,-0.2924,-0.293,-0.3319,-0.3322,-0.3326,-0.3477,-0.3478,-0.3478,-0.3506,-0.3506,-0.3507,-0.3507,-0.3496,-0.3495,-0.3494,0,0,0,0,0,0,0,0,0,0,0,0,0,-0.3073,-0.2932,-0.3318,-0.3371,-0.3379,-0.3477,-0.3478,-0.3478,-0.3506,-0.3506,-0.3507,-0.3507,-0.3496,-0.3495,-0.3494,-0.348,0,0,-0.3492,-0.3491,0,0,0,0,0,0,0,0,-0.3065,-0.3086,-0.336,-0.3368,-0.3377,-0.3488,-0.3336,-0.3477,-0.3506,-0.3439,-0.3507,-0.3507,-0.3488,-0.3488,-0.3494,-0.348,-0.3479,-0.3492,-0.3491,-0.3491,-0.349,0,0,0,0,0,0,0,-0.3055,-0.3079,-0.3364,-0.3364,-0.3374,-0.3348,-0.3369,-0.3361,-0.3442,-0.3445,-0.3451,-0.3497,-0.3489,-0.3495,-0.3494,-0.3479,-0.3492,-0.3491,-0.349,-0.349,-0.3404,-0.3403,0,0,0,0,0,0,-0.3078,-0.307,-0.3359,-0.337,-0.3239,-0.3357,-0.3379,-0.3437,-0.3446,-0.3455,-0.3497,-0.3498,-0.3496,-0.3495,-0.3494,-0.3411,-0.3491,-0.349,-0.3489,-0.3406,-0.3404,-0.3402,0,0,0,0,0,0,-0.3069,-0.3102,-0.3353,-0.3236,-0.3269,-0.3366,-0.3429,-0.3441,-0.3453,-0.3491,-0.3492,-0.3501,-0.3497,-0.3495,-0.3484,-0.3413,-0.349,-0.3489,-0.3408,-0.3406,-0.3403,-0.3288,0,0,0,0,0,0,-0.3057,-0.3098,-0.3095,-0.3239,-0.3277,-0.3381,-0.3431,-0.3444,-0.349,-0.3492,-0.3495,-0.3495,-0.3497,-0.3485,-0.3483,-0.3414,-0.3488,-0.3411,-0.3407,-0.3404,-0.3294,-0.3282,-0.3271,0,0,0,0,0,-0.3042,-0.3022,-0.3094,-0.3127,-0.3288,-0.3382,-0.3393,-0.3452,-0.3489,-0.3467,-0.3492,-0.3495,-0.3462,-0.3484,-0.3482,-0.341,-0.3412,-0.3408,-0.3404,-0.3299,-0.3284,-0.3272,0,0,0,0,0,0,-0.2841,-0.303,-0.311,-0.315,-0.326,-0.3392,-0.3366,-0.3451,-0.3457,-0.3448,-0.3487,-0.3486,-0.3437,-0.3455,-0.348,-0.3378,-0.3431,-0.3426,-0.3351,-0.3338,-0.3326,-0.3316,-0.3487,0,0,0,0,0,-0.2811,-0.2844,-0.3039,-0.3066,-0.3114,-0.325,-0.3284,-0.3354,-0.3415,-0.3419,-0.3435,-0.3436,-0.3418,-0.3408,-0.3388,-0.3351,-0.3354,-0.33,-0.3288,-0.3279,-0.3269,-0.3239,-0.3223,-0.3389,-0.3389,-0.3389,0,0,-0.2753,-0.2852,-0.2878,-0.3024,-0.31,-0.3137,-0.3262,-0.3316,-0.3326,-0.3412,-0.3368,-0.3391,-0.34,-0.3341,-0.332,-0.335,-0.3227,-0.3273,-0.3265,-0.3261,-0.3233,-0.3216,-0.3202,-0.3386,-0.3387,-0.3387,0,0,-0.2649,-0.2735,-0.2738,-0.2811,-0.2946,-0.3025,-0.305,-0.3187,-0.3208,-0.3229,-0.3266,-0.327,-0.3253,-0.3243,-0.3239,-0.3162,-0.3163,-0.3141,-0.3076,-0.3045,-0.3031,-0.3019,-0.2974,-0.2959,-0.314,-0.314,-0.314,0,-0.2572,-0.2636,-0.2743,-0.2762,-0.2817,-0.2973,-0.3,-0.3024,-0.3134,-0.3155,-0.3187,-0.3188,-0.32,-0.3146,-0.3119,-0.313,-0.3114,-0.3125,-0.3029,-0.3017,-0.3007,-0.2964,-0.2948,-0.3134,-0.3135,-0.3135,-0.3136,0,-0.2499,-0.254,-0.2532,-0.2619,-0.266,-0.2706,-0.2812,-0.2828,-0.2899,-0.2965,-0.2954,-0.2989,-0.3012,-0.2993,-0.3035,-0.2958,-0.2969,-0.3012,-0.3061,-0.2983,-0.2943,-0.2929,-0.3126,-0.3128,-0.313,-0.3131,0,0,-0.2401,-0.248,-0.2483,-0.2549,-0.2613,-0.2689,-0.2634,-0.2712,-0.2744,-0.2766,-0.2796,-0.276,-0.2833,-0.2836,-0.2877,-0.2851,-0.2765,-0.2898,-0.2899,-0.2847,-0.2675,-0.2589,-0.2566,-0.2789,-0.2787,-0.2785,-0.2666,0,-0.2347,-0.2391,-0.2408,-0.2448,-0.2515,-0.2578,-0.2549,-0.2605,-0.2655,-0.269,-0.2709,-0.2741,-0.2752,-0.2803,-0.2755,-0.2797,-0.2727,-0.2792,-0.2764,-0.2763,-0.2692,-0.2547,-0.2454,-0.2332,-0.2653,-0.2651,-0.2649,0,-0.2297,-0.2361,-0.2405,-0.2495,-0.2522,-0.2528,-0.2598,-0.2599,-0.2613,-0.2651,-0.2644,-0.2686,-0.2653,-0.2699,-0.2622,-0.2665,-0.264,-0.2643,-0.264,-0.2592,-0.265,-0.2468,-0.2295,-0.229,-0.2629,-0.263,-0.2632,0,-0.2315,-0.2362,-0.2426,-0.2455,-0.2542,-0.2558,-0.2589,-0.2607,-0.2613,-0.265,-0.2664,-0.263,-0.2646,-0.2593,-0.2576,-0.2609,-0.249,-0.255,-0.2415,-0.241,-0.2341,-0.2332,-0.2154,-0.2441,-0.2442,-0.2442,-0.2442,0,-0.2306,-0.2379,-0.2461,-0.253,-0.256,-0.2626,-0.2634,-0.2657,-0.2674,-0.2603,-0.2671,-0.2612,-0.2622,-0.2557,-0.2535,-0.2408,-0.2442,-0.2353,-0.2354,-0.2294,-0.2284,-0.229,-0.2336,-0.2438,-0.2439,-0.2439,-0.244,0,-0.2364,-0.2402,-0.2499,-0.2592,-0.2582,-0.2638,-0.262,-0.2566,-0.2674,-0.2579,-0.2584,-0.2597,-0.2504,-0.248,-0.241,-0.2349,-0.2221,-0.2212,-0.2129,-0.2119,-0.1989,-0.2034,-0.1868,-0.1817,-0.2034,-0.2031,-0.2029,0,-0.2413,-0.2482,-0.2535,-0.245,-0.2482,-0.2516,-0.2402,-0.2517,-0.2419,-0.25,-0.2378,-0.24,-0.2258,-0.218,-0.2117,-0.2021,-0.2064,-0.1885,-0.1916,-0.1908,-0.1961,-0.2008,-0.1983,-0.1777,-0.1772,-0.1769,-0.1766,0,-0.2459,-0.2473,-0.2462,-0.2342,-0.2229,-0.216,-0.2064,-0.2025,-0.2057,-0.2021,-0.1934,-0.1927,-0.1925,-0.1821,-0.18,-0.1741,-0.1845,-0.1803,-0.1816,-0.1728,-0.1747,-0.1725,-0.194,-0.1733,-0.1736,-0.1739,-0.174,-0.1742,-0.2375,-0.2325,-0.2203,-0.209,-0.1942,-0.1753,-0.1657,-0.152,-0.1413,-0.1311,-0.1412,-0.1324,-0.1555,-0.1531,-0.1493,-0.1471,-0.1553,-0.1454,-0.1502,-0.1546,-0.1496,-0.1614,-0.1406,-0.1407,-0.1408,-0.1409,-0.141,0,-0.2133,-0.2027,-0.1895,-0.17,-0.1503,-0.1529,-0.1313,-0.1187,-0.0958,-0.0839,-0.0765,-0.0825,-0.0923,-0.1146,-0.1264,-0.1212,-0.1216,-0.1212,-0.1275,-0.1259,-0.1362,-0.1351,-0.1093,-0.1093,-0.1093,-0.1093,-0.1093,-0.1093,-0.1951,-0.1683,-0.1637,-0.1273,-0.117,-0.0913,-0.0791,-0.0636,-0.0524,-0.0291,-0.0217,-0.0254,-0.0668,-0.1078,-0.1178,-0.1129,-0.1142,-0.1091,-0.114,-0.1256,-0.1285,-0.1312,-0.1308,-0.1046,-0.1046,-0.0988,-0.0988,-0.0988]},{"header":{"parameterUnit":"m.s-1","parameterCategory":2,"la1":30.2991,"la2":30.254,"lo1":-89.0895,"lo2":-89.0444,"dy":0.0017,"dx":0.0017,"nx":28,"ny":28,"refTime":"2025-07-23T21:00:00:Z","depth":"0","parameterNumber":3,"parameterNumberName":"V-component_of_CURRENTS"},"data":[0,0,0,0,0,0,0,0,0,0,0,0,0,0,0,0,0,0,0,0,0,0,0,0,0,0,0,0,0,0,0,0,0,0,0,0,0,0,0,0,0,0,0,0,0,0,0,0,0,0,0,0,0,0,0,0,0,0,-0.0275,-0.0273,0,-0.0082,-0.008,-0.0077,0.0068,0.0069,0.007,0.0072,0.0436,0.0444,0.0452,0,0,0,0,0,0,0,0,0,0,0,0,0,-0.0455,-0.0453,-0.0275,-0.0273,-0.027,-0.0082,-0.0079,-0.0077,0.0068,0.0069,0.0071,0.0072,0.0433,0.0443,0.0453,0,0,0,0,0,0,0,0,0,0,0,0,0,-0.0331,-0.0452,-0.0275,-0.0176,-0.0165,-0.0083,-0.0079,-0.0076,0.0067,0.0069,0.0071,0.0073,0.0429,0.0442,0.0454,0.0495,0,0,0.0493,0.0499,0,0,0,0,0,0,0,0,-0.0338,-0.0325,-0.0193,-0.0183,-0.017,-0.0029,-0.0009,0.0123,0.0067,-0.0021,0.0072,0.0074,0.0294,0.0318,0.0348,0.0512,0.0527,0.0494,0.0502,0.0508,0.0511,0,0,0,0,0,0,0,-0.0347,-0.0332,-0.0198,-0.0191,-0.0177,-0.0119,-0.01,0.0016,0.0127,-0.0013,-0.0002,0.0018,0.0302,0.0335,0.0359,0.0533,0.0494,0.0505,0.0513,0.0518,0.0829,0.083,0,0,0,0,0,0,-0.0377,-0.034,-0.0204,-0.0192,-0.0252,-0.0118,-0.0096,-0.0076,0.0123,0.0153,0.0017,0.0024,0.0313,0.0343,0.0372,0.0465,0.0508,0.052,0.0527,0.0829,0.083,0.083,0,0,0,0,0,0,-0.0382,-0.0367,-0.0212,-0.0262,-0.0238,-0.0117,-0.0096,-0.0073,-0.0035,0.0143,0.0178,0.0033,0.0315,0.0354,0.0474,0.0479,0.0525,0.0537,0.0828,0.0829,0.083,0.063,0,0,0,0,0,0,-0.0388,-0.037,-0.0376,-0.0264,-0.0237,-0.017,-0.0097,-0.0071,-0.0026,-0.0013,0.0168,0.0204,0.032,0.0454,0.0486,0.0498,0.0547,0.0827,0.0829,0.083,0.0636,0.0624,0.0614,0,0,0,0,0,-0.0395,-0.0403,-0.0377,-0.0361,-0.0245,-0.0171,-0.0151,-0.0058,-0.0028,-0.0016,0.0105,0.0198,0.0486,0.0464,0.0502,0.0517,0.0827,0.0828,0.083,0.0641,0.0626,0.0614,0,0,0,0,0,0,-0.0476,-0.0386,-0.0355,-0.0334,-0.0265,-0.0146,-0.013,-0.0075,0.0024,0.0039,0.02,0.0243,0.0353,0.0462,0.0434,0.0614,0.0675,0.0684,0.0518,0.0506,0.0496,0.0464,0.0557,0,0,0,0,0,-0.0504,-0.0488,-0.0392,-0.0377,-0.035,-0.025,-0.0213,-0.0152,-0.0048,-0.0004,0.012,0.0261,0.0386,0.0463,0.0588,0.0679,0.0737,0.072,0.0709,0.0698,0.0701,0.0747,0.0738,0.0835,0.0835,0.0835,0,0,-0.0528,-0.0481,-0.0468,-0.0395,-0.0335,-0.0298,-0.0222,-0.0173,-0.0135,0.0023,0.0108,0.0224,0.0401,0.0504,0.0564,0.0597,0.0701,0.07,0.0689,0.0699,0.0747,0.0737,0.0728,0.0836,0.0836,0.0835,0,0,-0.0563,-0.0533,-0.0527,-0.0482,-0.0409,-0.0347,-0.0343,-0.0236,-0.0183,-0.0096,0.0029,0.0137,0.0327,0.0447,0.0535,0.0542,0.0633,0.0588,0.0516,0.0558,0.0549,0.0542,0.058,0.0578,0.0589,0.0588,0.0588,0,-0.0596,-0.0573,-0.0515,-0.0497,-0.0463,-0.0379,-0.0359,-0.03,-0.0167,-0.0122,-0.0086,0.0165,0.0303,0.0437,0.0443,0.0516,0.0545,0.0539,0.0536,0.0531,0.0527,0.0568,0.0569,0.0579,0.058,0.0581,0.0582,0,-0.0616,-0.0602,-0.0598,-0.0549,-0.0511,-0.0485,-0.0398,-0.0357,-0.0295,-0.0219,-0.01,0.0058,0.0213,0.0268,0.0365,0.0423,0.0452,0.0499,0.0548,0.0503,0.0552,0.0555,0.0565,0.0569,0.0572,0.0574,0,0,-0.0658,-0.0621,-0.0616,-0.0597,-0.0537,-0.0494,-0.0462,-0.0383,-0.0343,-0.0248,-0.0184,-0.0004,0.006,0.0164,0.0283,0.0327,0.032,0.0386,0.0393,0.0386,0.0393,0.0449,0.046,0.0341,0.0341,0.0341,0.0427,0,-0.0683,-0.0675,-0.0644,-0.062,-0.0602,-0.0536,-0.0497,-0.0422,-0.0355,-0.028,-0.0155,-0.0035,0.0027,0.0105,0.0139,0.0309,0.0324,0.0292,0.0473,0.0479,0.0503,0.0465,0.0503,0.0585,0.0431,0.0432,0.0432,0,-0.0702,-0.0689,-0.0688,-0.0635,-0.0618,-0.0592,-0.0517,-0.0469,-0.0369,-0.0315,-0.0237,-0.0134,-0.0014,0.0025,0.0192,0.0159,0.0245,0.0339,0.0345,0.0476,0.0544,0.0617,0.0599,0.0708,0.0439,0.0439,0.0438,0,-0.0745,-0.071,-0.0712,-0.0697,-0.0633,-0.0608,-0.0558,-0.0474,-0.0361,-0.033,-0.0239,-0.0172,-0.0049,0.002,0.0212,0.0194,0.0377,0.0391,0.0505,0.0511,0.0625,0.0641,0.0709,0.0453,0.0453,0.0453,0.0452,0,-0.0784,-0.0773,-0.0725,-0.0724,-0.0628,-0.0626,-0.0516,-0.0472,-0.0364,-0.0203,-0.0242,-0.0096,-0.0047,0.0084,0.0181,0.0368,0.035,0.0488,0.0536,0.0558,0.0566,0.0737,0.0777,0.0456,0.0455,0.0454,0.0454,0,-0.0794,-0.0815,-0.0744,-0.0682,-0.064,-0.0552,-0.0367,-0.028,-0.0255,-0.0054,-0.0019,0.0021,0.0122,0.0182,0.0328,0.0396,0.0616,0.0596,0.0612,0.0659,0.0843,0.087,0.102,0.1099,0.0713,0.0715,0.0717,0,-0.0797,-0.0781,-0.0639,-0.0536,-0.0485,-0.0356,-0.024,-0.0183,-0.0068,0.0081,0.0198,0.0265,0.037,0.0517,0.0561,0.0656,0.0731,0.078,0.0756,0.0855,0.0921,0.0938,0.0994,0.0824,0.0826,0.0828,0.083,0,-0.069,-0.0633,-0.0535,-0.0359,-0.0225,-0.006,0.0078,0.0183,0.0257,0.0384,0.055,0.0616,0.0669,0.0726,0.0747,0.0824,0.0868,0.0824,0.093,0.1012,0.1035,0.1135,0.076,0.0847,0.0845,0.0844,0.0843,0.0842,-0.0493,-0.0392,-0.0268,-0.0085,0.0049,0.0174,0.03,0.0397,0.0558,0.0693,0.0789,0.0869,0.095,0.094,0.1008,0.1075,0.1034,0.1135,0.1158,0.1166,0.1245,0.0902,0.1042,0.1042,0.1041,0.1041,0.104,0,-0.0207,-0.0151,0.0003,0.0177,0.0317,0.0327,0.049,0.057,0.0705,0.0807,0.0942,0.1132,0.1188,0.1212,0.1273,0.1395,0.1416,0.146,0.1487,0.1529,0.1237,0.1246,0.1433,0.1433,0.1433,0.1433,0.1433,0.1433,-0.002,0.0138,0.0145,0.0378,0.0471,0.0623,0.0695,0.0777,0.0845,0.0981,0.107,0.1169,0.1299,0.1531,0.166,0.1682,0.1807,0.1796,0.1864,0.1651,0.1622,0.1594,0.1612,0.1873,0.1873,0.2159,0.2162,0.2164]}],[{"header":{"parameterUnit":"m.s-1","parameterCategory":2,"la1":30.2991,"la2":30.254,"lo1":-89.0895,"lo2":-89.0444,"dy":0.0017,"dx":0.0017,"nx":28,"ny":28,"refTime":"2025-07-23T21:00:00:Z","depth":"2","parameterNumber":2,"parameterNumberName":"U-component_of_CURRENTS"},"data":[0,0,0,0,0,0,0,0,0,0,0,0,0,0,0,0,0,0,0,0,0,0,0,0,0,0,0,0,0,0,0,0,0,0,0,0,0,0,0,0,0,0,0,0,0,0,0,0,0,0,0,0,0,0,0,0,0,0,-0.2436,-0.2436,0,-0.2514,-0.2515,-0.2517,-0.2608,-0.2609,-0.2609,-0.261,-0.2697,-0.2698,-0.27,0,0,0,0,0,0,0,0,0,0,0,0,0,-0.2412,-0.2412,-0.2436,-0.2436,-0.2436,-0.2513,-0.2516,-0.2518,-0.2608,-0.2609,-0.2609,-0.261,-0.2696,-0.2698,-0.27,0,0,0,0,0,0,0,0,0,0,0,0,0,-0.2458,-0.2412,-0.2436,-0.2484,-0.2488,-0.2513,-0.2516,-0.2518,-0.2608,-0.2609,-0.2609,-0.261,-0.2695,-0.2698,-0.2701,-0.2704,0,0,-0.2709,-0.2711,0,0,0,0,0,0,0,0,-0.2456,-0.2461,-0.2477,-0.248,-0.2485,-0.2543,-0.2538,-0.2577,-0.2608,-0.2573,-0.261,-0.261,-0.2639,-0.2647,-0.2674,-0.2708,-0.2712,-0.271,-0.2711,-0.2712,-0.2713,0,0,0,0,0,0,0,-0.2452,-0.2458,-0.2477,-0.2476,-0.2481,-0.2515,-0.2524,-0.2547,-0.2609,-0.2576,-0.258,-0.2573,-0.2643,-0.2671,-0.2676,-0.2713,-0.2709,-0.2712,-0.2714,-0.2715,-0.2688,-0.2686,0,0,0,0,0,0,-0.2419,-0.2454,-0.2475,-0.2479,-0.246,-0.2514,-0.2524,-0.2532,-0.2609,-0.2618,-0.2572,-0.2576,-0.2666,-0.2673,-0.268,-0.2667,-0.2712,-0.2715,-0.2717,-0.269,-0.2687,-0.2685,0,0,0,0,0,0,-0.2419,-0.2421,-0.2471,-0.2459,-0.2467,-0.2512,-0.2522,-0.2533,-0.2586,-0.2604,-0.2616,-0.2615,-0.2667,-0.2676,-0.2699,-0.2672,-0.2716,-0.2719,-0.2693,-0.2689,-0.2686,-0.2656,0,0,0,0,0,0,-0.2418,-0.2421,-0.2424,-0.2457,-0.2466,-0.2478,-0.252,-0.2534,-0.2574,-0.2582,-0.2644,-0.2651,-0.2668,-0.2695,-0.2702,-0.2677,-0.2721,-0.2696,-0.2692,-0.2687,-0.266,-0.2651,-0.2644,0,0,0,0,0,-0.2417,-0.241,-0.2425,-0.2427,-0.2467,-0.2476,-0.2485,-0.2526,-0.2575,-0.2584,-0.2626,-0.2651,-0.267,-0.2697,-0.2705,-0.268,-0.2698,-0.2693,-0.2688,-0.2663,-0.2653,-0.2644,0,0,0,0,0,0,-0.2392,-0.2419,-0.2435,-0.2435,-0.2449,-0.2487,-0.2493,-0.254,-0.2587,-0.26,-0.2648,-0.2656,-0.2653,-0.2668,-0.2697,-0.265,-0.2677,-0.2673,-0.2655,-0.2646,-0.2638,-0.2626,-0.2723,0,0,0,0,0,-0.2386,-0.2391,-0.2416,-0.2409,-0.2419,-0.2468,-0.2484,-0.2512,-0.2548,-0.2574,-0.2612,-0.2633,-0.2633,-0.2646,-0.2644,-0.2647,-0.2646,-0.2622,-0.2615,-0.2608,-0.2598,-0.2588,-0.258,-0.2667,-0.2667,-0.2667,0,0,-0.2365,-0.2381,-0.2381,-0.2404,-0.2425,-0.243,-0.2483,-0.2498,-0.2503,-0.2571,-0.2597,-0.2614,-0.2625,-0.2609,-0.2608,-0.2627,-0.2576,-0.2602,-0.2597,-0.259,-0.2581,-0.2573,-0.2566,-0.2663,-0.2664,-0.2665,0,0,-0.232,-0.235,-0.2343,-0.2358,-0.2378,-0.2404,-0.2413,-0.2459,-0.2483,-0.25,-0.2535,-0.2538,-0.2563,-0.2554,-0.2555,-0.2504,-0.2533,-0.2501,-0.2467,-0.2458,-0.2451,-0.2446,-0.2416,-0.2408,-0.2503,-0.2503,-0.2503,0,-0.2293,-0.2302,-0.2336,-0.2336,-0.2347,-0.2395,-0.2396,-0.2414,-0.2459,-0.2474,-0.2491,-0.2513,-0.2523,-0.2508,-0.2479,-0.2488,-0.2491,-0.2513,-0.2451,-0.2446,-0.2441,-0.2412,-0.2404,-0.2501,-0.2501,-0.2501,-0.2502,0,-0.2247,-0.2263,-0.2257,-0.2279,-0.2292,-0.2296,-0.2321,-0.234,-0.238,-0.2402,-0.2403,-0.2414,-0.2433,-0.2418,-0.2438,-0.2402,-0.2416,-0.2444,-0.2486,-0.2431,-0.2403,-0.2395,-0.2498,-0.2499,-0.2499,-0.25,0,0,-0.217,-0.2218,-0.2219,-0.2245,-0.2274,-0.2287,-0.228,-0.23,-0.2326,-0.2328,-0.2351,-0.232,-0.2352,-0.2351,-0.2372,-0.2355,-0.2309,-0.2387,-0.2387,-0.2375,-0.2281,-0.2196,-0.2179,-0.2349,-0.2347,-0.2346,-0.2271,0,-0.2129,-0.2139,-0.2167,-0.218,-0.2201,-0.2241,-0.2243,-0.2263,-0.2288,-0.2314,-0.2306,-0.2324,-0.2319,-0.2343,-0.2317,-0.2329,-0.229,-0.2326,-0.232,-0.2318,-0.2265,-0.2167,-0.2021,-0.1934,-0.2264,-0.2262,-0.2261,0,-0.2081,-0.2109,-0.2117,-0.2184,-0.2195,-0.2197,-0.2245,-0.2253,-0.2276,-0.2298,-0.2301,-0.2322,-0.2295,-0.2305,-0.2257,-0.2292,-0.2267,-0.2258,-0.2256,-0.2182,-0.2217,-0.2042,-0.1908,-0.2249,-0.225,-0.2251,-0.2251,0,-0.2045,-0.2081,-0.21,-0.2116,-0.2176,-0.2185,-0.2214,-0.2245,-0.2259,-0.2293,-0.2308,-0.23,-0.2296,-0.2269,-0.2232,-0.2261,-0.2177,-0.222,-0.2102,-0.2096,-0.1967,-0.1951,-0.2153,-0.2153,-0.2153,-0.2153,-0.2153,0,-0.2013,-0.2031,-0.2089,-0.2104,-0.2111,-0.2178,-0.2187,-0.2214,-0.2261,-0.2275,-0.23,-0.229,-0.2289,-0.225,-0.2223,-0.2118,-0.2161,-0.2058,-0.2059,-0.1947,-0.1931,-0.2213,-0.2221,-0.215,-0.2151,-0.2152,-0.2152,0,-0.1951,-0.2008,-0.2016,-0.2076,-0.209,-0.2089,-0.2139,-0.216,-0.2222,-0.224,-0.2251,-0.2267,-0.2209,-0.2178,-0.2129,-0.2083,-0.2018,-0.1968,-0.1822,-0.1804,-0.1948,-0.1955,-0.183,-0.1826,-0.1822,-0.1819,-0.1817,0,-0.1917,-0.1914,-0.1947,-0.1952,-0.1968,-0.1992,-0.2009,-0.2097,-0.2121,-0.221,-0.2203,-0.218,-0.2116,-0.199,-0.1899,-0.1797,-0.1892,-0.1627,-0.1633,-0.1895,-0.1909,-0.1922,-0.1933,-0.1447,-0.1442,-0.1438,-0.1435,0,-0.181,-0.1812,-0.1825,-0.1821,-0.1837,-0.1848,-0.1891,-0.1905,-0.203,-0.2054,-0.2082,-0.2055,-0.1938,-0.1741,-0.1603,-0.1541,-0.1638,-0.1536,-0.1834,-0.1556,-0.1529,-0.1546,-0.1571,-0.1397,-0.1401,-0.1403,-0.1405,-0.1407,-0.1697,-0.166,-0.1673,-0.1657,-0.1681,-0.1687,-0.1657,-0.1735,-0.175,-0.1776,-0.1883,-0.1789,-0.1741,-0.1418,-0.1318,-0.1232,-0.1348,-0.131,-0.1325,-0.1344,-0.1317,-0.1287,-0.1102,-0.1104,-0.1106,-0.1107,-0.1109,0,-0.155,-0.1535,-0.1514,-0.15,-0.1469,-0.1534,-0.1559,-0.152,-0.149,-0.1536,-0.1544,-0.1381,-0.121,-0.1157,-0.0951,-0.091,-0.0929,-0.0888,-0.0921,-0.0957,-0.0989,-0.0948,-0.0633,-0.0632,-0.0631,-0.063,0,0,-0.1473,-0.1409,-0.1394,-0.1286,-0.1283,-0.1202,-0.1186,-0.1161,-0.1148,-0.1086,-0.1049,-0.114,-0.1122,-0.0893,-0.082,-0.0686,-0.082,-0.065,-0.1026,-0.1099,-0.1131,-0.1219,-0.1193,0,0,0,0,0]},{"header":{"parameterUnit":"m.s-1","parameterCategory":2,"la1":30.2991,"la2":30.254,"lo1":-89.0895,"lo2":-89.0444,"dy":0.0017,"dx":0.0017,"nx":28,"ny":28,"refTime":"2025-07-23T21:00:00:Z","depth":"2","parameterNumber":3,"parameterNumberName":"V-component_of_CURRENTS"},"data":[0,0,0,0,0,0,0,0,0,0,0,0,0,0,0,0,0,0,0,0,0,0,0,0,0,0,0,0,0,0,0,0,0,0,0,0,0,0,0,0,0,0,0,0,0,0,0,0,0,0,0,0,0,0,0,0,0,0,-0.0374,-0.0374,0,-0.0293,-0.0292,-0.0291,-0.0216,-0.0216,-0.0215,-0.0215,-0.0046,-0.0042,-0.0038,0,0,0,0,0,0,0,0,0,0,0,0,0,-0.0462,-0.0461,-0.0374,-0.0374,-0.0373,-0.0293,-0.0292,-0.029,-0.0216,-0.0216,-0.0215,-0.0215,-0.0047,-0.0042,-0.0037,0,0,0,0,0,0,0,0,0,0,0,0,0,-0.0403,-0.046,-0.0374,-0.033,-0.0325,-0.0294,-0.0292,-0.029,-0.0217,-0.0216,-0.0215,-0.0214,-0.0049,-0.0043,-0.0037,-0.0014,0,0,-0.0018,-0.0016,0,0,0,0,0,0,0,0,-0.0406,-0.0399,-0.0337,-0.0333,-0.0328,-0.0268,-0.0261,-0.0195,-0.0217,-0.0253,-0.0215,-0.0214,-0.0115,-0.0104,-0.0085,-0.0006,0.0001,-0.0018,-0.0014,-0.0011,-0.001,0,0,0,0,0,0,0,-0.041,-0.0402,-0.0337,-0.0337,-0.0331,-0.0314,-0.0304,-0.0248,-0.0184,-0.025,-0.0245,-0.0244,-0.0112,-0.0091,-0.008,0.0004,-0.0018,-0.0012,-0.0009,-0.0006,0.0096,0.0095,0,0,0,0,0,0,-0.043,-0.0406,-0.034,-0.0336,-0.0371,-0.0313,-0.0302,-0.0284,-0.0186,-0.0173,-0.0245,-0.0241,-0.0102,-0.0087,-0.0074,-0.0015,-0.0011,-0.0006,-0.0002,0.0096,0.0095,0.0094,0,0,0,0,0,0,-0.0432,-0.0425,-0.0343,-0.0374,-0.0363,-0.0313,-0.0293,-0.0283,-0.0261,-0.0184,-0.0168,-0.0233,-0.0101,-0.0083,-0.0021,-0.0008,-0.0003,0.0003,0.0098,0.0096,0.0095,0.0088,0,0,0,0,0,0,-0.0435,-0.0425,-0.0426,-0.0374,-0.0362,-0.0328,-0.0294,-0.0282,-0.0263,-0.0257,-0.0169,-0.0153,-0.0099,-0.003,-0.0015,0.0,0.0007,0.0099,0.0097,0.0095,0.0089,0.0086,0.0084,0,0,0,0,0,-0.0438,-0.0441,-0.0426,-0.0419,-0.0361,-0.0329,-0.0321,-0.028,-0.0264,-0.0256,-0.0194,-0.0155,-0.0032,-0.0025,-0.0007,0.001,0.01,0.0097,0.0095,0.009,0.0087,0.0084,0,0,0,0,0,0,-0.0483,-0.0433,-0.0415,-0.0403,-0.0372,-0.0318,-0.0314,-0.0287,-0.0233,-0.0224,-0.015,-0.0129,-0.0074,-0.0043,-0.0039,0.0026,0.0033,0.0035,0.0023,0.002,0.0017,-0.0001,0.0012,0,0,0,0,0,-0.0495,-0.0482,-0.0433,-0.0429,-0.0413,-0.0365,-0.035,-0.032,-0.0269,-0.0245,-0.0185,-0.0128,-0.0071,-0.0034,0.0014,0.0061,0.0087,0.0073,0.007,0.0068,0.006,0.0109,0.0111,0.0087,0.0087,0.0087,0,0,-0.0514,-0.0487,-0.0481,-0.0439,-0.0409,-0.0386,-0.0352,-0.033,-0.0306,-0.0234,-0.0183,-0.013,-0.0064,-0.001,0.0015,0.0023,0.0087,0.0065,0.0064,0.0057,0.0107,0.011,0.0113,0.0086,0.0086,0.0086,0,0,-0.0545,-0.0518,-0.0513,-0.0486,-0.0449,-0.0414,-0.0411,-0.0354,-0.0322,-0.0274,-0.0215,-0.0157,-0.0082,-0.002,0.0018,0.0024,0.0069,0.0027,0.0014,0.0062,0.0065,0.0068,0.0108,0.0114,0.003,0.003,0.003,0,-0.0571,-0.0552,-0.0511,-0.0496,-0.048,-0.0428,-0.0416,-0.0375,-0.0308,-0.0279,-0.0266,-0.0147,-0.0085,-0.0004,-0.0001,0.0023,0.0048,0.0031,0.0062,0.0065,0.0069,0.0108,0.0116,0.0029,0.0029,0.0029,0.0029,0,-0.0587,-0.0574,-0.0571,-0.0529,-0.0505,-0.0491,-0.0431,-0.0401,-0.0363,-0.0317,-0.0246,-0.0163,-0.0095,-0.0066,-0.0023,0.0032,0.0041,0.0054,0.0077,0.0071,0.0112,0.012,0.0028,0.0029,0.0029,0.0029,0,0,-0.0628,-0.0591,-0.0587,-0.0581,-0.0521,-0.0507,-0.0463,-0.0407,-0.0381,-0.0314,-0.0271,-0.0169,-0.0132,-0.009,-0.0027,0.0022,0.008,0.0043,0.0046,0.0094,0.0179,0.0201,0.0212,0.0101,0.0103,0.0103,0.02,0,-0.065,-0.0652,-0.0611,-0.0604,-0.0598,-0.0536,-0.05,-0.0444,-0.039,-0.0335,-0.0244,-0.0182,-0.0137,-0.0101,-0.0045,0.0053,0.0098,0.0051,0.0165,0.0169,0.02,0.0221,0.0189,0.0273,0.0208,0.0209,0.021,0,-0.0666,-0.0668,-0.0676,-0.0647,-0.0635,-0.062,-0.0564,-0.0524,-0.0427,-0.0382,-0.0306,-0.0235,-0.0132,-0.0112,0.0043,0.001,0.0082,0.0149,0.0155,0.0181,0.0206,0.0266,0.029,0.0224,0.0223,0.0222,0.0221,0,-0.0727,-0.0705,-0.0723,-0.0713,-0.067,-0.066,-0.0629,-0.0546,-0.0521,-0.0415,-0.0384,-0.0257,-0.0188,-0.0084,0.0062,0.0051,0.0221,0.0226,0.0311,0.0314,0.0311,0.0311,0.0312,0.0312,0.0312,0.0312,0.0311,0,-0.0768,-0.0775,-0.0761,-0.0775,-0.0796,-0.0726,-0.0727,-0.067,-0.0592,-0.0561,-0.0422,-0.0364,-0.0181,-0.0056,0.0055,0.0218,0.0218,0.0313,0.0344,0.0306,0.0304,0.0275,0.027,0.0315,0.0314,0.0314,0.0313,0,-0.0833,-0.0819,-0.0849,-0.0833,-0.0834,-0.0852,-0.0827,-0.0813,-0.0716,-0.0671,-0.064,-0.0441,-0.0253,-0.0071,0.0129,0.0216,0.0362,0.0412,0.0354,0.0376,0.0419,0.0412,0.0513,0.0514,0.0516,0.0517,0.0518,0,-0.0868,-0.0893,-0.0926,-0.0955,-0.0957,-0.0974,-0.0978,-0.0903,-0.0888,-0.072,-0.0702,-0.0486,-0.0335,-0.0013,0.0202,0.0417,0.0416,0.0489,0.0463,0.0422,0.0442,0.0432,0.0423,0.0457,0.0458,0.0458,0.0458,0,-0.094,-0.0955,-0.0984,-0.1054,-0.1087,-0.1118,-0.1117,-0.1128,-0.1013,-0.0952,-0.08,-0.0652,-0.0294,-0.0025,0.0278,0.0394,0.0454,0.0502,0.0494,0.0407,0.0377,0.0394,0.0386,0.0461,0.0461,0.0461,0.0461,0.0461,-0.0994,-0.1041,-0.1079,-0.1138,-0.118,-0.1213,-0.1229,-0.1204,-0.1173,-0.1022,-0.091,-0.0655,-0.0359,0.0093,0.03,0.0514,0.0512,0.0541,0.0537,0.0534,0.0505,0.0479,0.0578,0.0578,0.0578,0.0579,0.0579,0,-0.1053,-0.109,-0.1149,-0.1211,-0.1253,-0.1259,-0.1274,-0.1244,-0.1197,-0.1047,-0.0906,-0.0598,-0.0288,0.0042,0.0378,0.0551,0.0536,0.0575,0.0517,0.0513,0.051,0.0478,0.0544,0.0545,0.0545,0.0545,0,0,-0.1089,-0.1146,-0.1167,-0.124,-0.1278,-0.1304,-0.1304,-0.1242,-0.1129,-0.0966,-0.0794,-0.0608,-0.0231,-0.0024,0.0216,0.0403,0.041,0.0418,0.0428,0.0328,0.0323,0.0476,0.0421,0,0,0,0,0]}],[{"header":{"parameterUnit":"m.s-1","parameterCategory":2,"la1":30.2991,"la2":30.254,"lo1":-89.0895,"lo2":-89.0444,"dy":0.0017,"dx":0.0017,"nx":28,"ny":28,"refTime":"2025-07-23T21:00:00:Z","depth":"4","parameterNumber":2,"parameterNumberName":"U-component_of_CURRENTS"},"data":[0,0,0,0,0,0,0,0,0,0,0,0,0,0,0,0,0,0,0,0,0,0,0,0,0,0,0,0,0,0,0,0,0,0,0,0,0,0,0,0,0,0,0,0,0,0,0,0,0,0,0,0,0,0,0,0,0,0,-0.1607,-0.1606,0,-0.1567,-0.1566,-0.1566,-0.1587,-0.1588,-0.1589,-0.1589,-0.1604,-0.1604,-0.1604,0,0,0,0,0,0,0,0,0,0,0,0,0,-0.1657,-0.1657,-0.1607,-0.1606,-0.1605,-0.1567,-0.1566,-0.1566,-0.1587,-0.1588,-0.1589,-0.1589,-0.1604,-0.1604,-0.1604,0,0,0,0,0,0,0,0,0,0,0,0,0,-0.1632,-0.1657,-0.1607,-0.1608,-0.1607,-0.1567,-0.1566,-0.1566,-0.1587,-0.1588,-0.1589,-0.159,-0.1604,-0.1604,-0.1603,-0.1581,0,0,-0.1602,-0.1602,0,0,0,0,0,0,0,0,-0.1634,-0.1631,-0.1608,-0.1607,-0.1606,-0.1579,-0.1589,-0.1573,-0.1587,-0.1599,-0.1589,-0.159,-0.1597,-0.1597,-0.1593,-0.1582,-0.1583,-0.1602,-0.1602,-0.1602,-0.1602,0,0,0,0,0,0,0,-0.1636,-0.1633,-0.1595,-0.1607,-0.1606,-0.1594,-0.1593,-0.1586,-0.1597,-0.1598,-0.1598,-0.1587,-0.1598,-0.1593,-0.1594,-0.1583,-0.1602,-0.1602,-0.1602,-0.1602,-0.1601,-0.1601,0,0,0,0,0,0,-0.1633,-0.1634,-0.1597,-0.1594,-0.1618,-0.1592,-0.1591,-0.159,-0.1596,-0.1596,-0.1586,-0.1588,-0.1593,-0.1594,-0.1594,-0.1621,-0.1602,-0.1602,-0.1602,-0.16,-0.1601,-0.1601,0,0,0,0,0,0,-0.1634,-0.163,-0.1598,-0.1609,-0.1604,-0.159,-0.159,-0.1589,-0.1611,-0.1585,-0.1588,-0.1611,-0.1594,-0.1595,-0.1608,-0.162,-0.1602,-0.1601,-0.16,-0.1601,-0.1601,-0.1641,0,0,0,0,0,0,-0.1636,-0.1631,-0.1649,-0.1609,-0.1603,-0.1592,-0.1588,-0.1587,-0.1598,-0.1601,-0.1607,-0.1608,-0.1595,-0.1609,-0.1608,-0.1619,-0.1601,-0.16,-0.16,-0.1601,-0.1639,-0.1643,-0.1645,0,0,0,0,0,-0.1638,-0.1648,-0.1651,-0.1647,-0.1622,-0.1592,-0.1589,-0.1585,-0.1599,-0.161,-0.1614,-0.1609,-0.161,-0.1609,-0.1608,-0.1619,-0.16,-0.16,-0.1601,-0.1638,-0.1642,-0.1645,0,0,0,0,0,0,-0.1666,-0.1649,-0.1652,-0.1654,-0.1635,-0.1594,-0.1605,-0.16,-0.1612,-0.163,-0.1614,-0.1614,-0.1624,-0.1617,-0.1616,-0.1618,-0.1603,-0.1603,-0.1632,-0.1635,-0.1638,-0.165,-0.1601,0,0,0,0,0,-0.1682,-0.1695,-0.1664,-0.1666,-0.1665,-0.1644,-0.1639,-0.1635,-0.1625,-0.1634,-0.163,-0.1629,-0.1618,-0.1627,-0.1614,-0.1624,-0.1616,-0.1629,-0.1632,-0.1634,-0.1642,-0.1651,-0.1656,-0.1602,-0.1602,-0.1602,0,0,-0.1686,-0.1682,-0.1686,-0.1675,-0.1667,-0.1662,-0.1647,-0.1647,-0.1649,-0.1632,-0.1654,-0.1639,-0.1621,-0.1623,-0.1628,-0.1627,-0.164,-0.1635,-0.1637,-0.1643,-0.1652,-0.1657,-0.1662,-0.1602,-0.1602,-0.1602,0,0,-0.1683,-0.1708,-0.1712,-0.171,-0.1703,-0.1694,-0.1701,-0.1681,-0.169,-0.1693,-0.1678,-0.1675,-0.1668,-0.1652,-0.1643,-0.1656,-0.1649,-0.1656,-0.1691,-0.17,-0.1705,-0.1709,-0.1688,-0.169,-0.1667,-0.1667,-0.1667,0,-0.1688,-0.1694,-0.1705,-0.1708,-0.1709,-0.1714,-0.1712,-0.1718,-0.1704,-0.171,-0.1711,-0.1694,-0.1676,-0.1674,-0.1674,-0.1663,-0.1664,-0.1681,-0.1706,-0.171,-0.1714,-0.169,-0.1692,-0.1669,-0.1669,-0.1668,-0.1668,0,-0.1672,-0.1696,-0.17,-0.1716,-0.1723,-0.1726,-0.173,-0.1749,-0.1763,-0.1756,-0.1764,-0.1741,-0.1731,-0.1721,-0.1702,-0.1716,-0.1704,-0.1702,-0.1701,-0.1722,-0.1695,-0.1696,-0.1672,-0.1671,-0.167,-0.167,0,0,-0.1627,-0.1679,-0.1685,-0.1705,-0.1734,-0.173,-0.1762,-0.1771,-0.1791,-0.1797,-0.1807,-0.1788,-0.1786,-0.1775,-0.1755,-0.1763,-0.1771,-0.1754,-0.1753,-0.1738,-0.178,-0.1646,-0.1634,-0.1788,-0.1789,-0.179,-0.1744,0,-0.1609,-0.1629,-0.1659,-0.1686,-0.1699,-0.1737,-0.1759,-0.1781,-0.18,-0.1817,-0.1818,-0.1815,-0.1806,-0.18,-0.1812,-0.1775,-0.178,-0.1782,-0.1756,-0.1755,-0.164,-0.1633,-0.1792,-0.1745,-0.1745,-0.1746,-0.1746,0,-0.1574,-0.1601,-0.1626,-0.1686,-0.1695,-0.1716,-0.1768,-0.1786,-0.1823,-0.1837,-0.186,-0.1857,-0.186,-0.1851,-0.1838,-0.1847,-0.1822,-0.1799,-0.1797,-0.1662,-0.1624,-0.1723,-0.1748,-0.1747,-0.1747,-0.1747,-0.1747,0,-0.1529,-0.1579,-0.1608,-0.1625,-0.1687,-0.1713,-0.1748,-0.1792,-0.1802,-0.1853,-0.1856,-0.1885,-0.187,-0.188,-0.1831,-0.1846,-0.1807,-0.1815,-0.1673,-0.1662,-0.1782,-0.1778,-0.1815,-0.1815,-0.1815,-0.1815,-0.1815,0,-0.1488,-0.1516,-0.1597,-0.1611,-0.1633,-0.1698,-0.1724,-0.176,-0.1806,-0.1801,-0.1865,-0.1844,-0.1881,-0.1857,-0.1842,-0.1742,-0.1816,-0.1669,-0.1643,-0.1795,-0.1793,-0.1781,-0.1778,-0.1813,-0.1814,-0.1814,-0.1814,0,-0.1418,-0.1484,-0.1509,-0.1586,-0.161,-0.1623,-0.1684,-0.1695,-0.1764,-0.1759,-0.1772,-0.1803,-0.1765,-0.1776,-0.1752,-0.1709,-0.1657,-0.1607,-0.1745,-0.1729,-0.1508,-0.1507,-0.1448,-0.1443,-0.1439,-0.1435,-0.1432,0,-0.1376,-0.1387,-0.146,-0.1474,-0.1508,-0.155,-0.1566,-0.1648,-0.1653,-0.1703,-0.1676,-0.167,-0.1673,-0.1534,-0.1572,-0.1531,-0.1517,-0.1494,-0.1525,-0.149,-0.1471,-0.1478,-0.1483,-0.1425,-0.1424,-0.1423,-0.1422,0,-0.1276,-0.1316,-0.1339,-0.136,-0.1387,-0.1401,-0.144,-0.1429,-0.151,-0.1587,-0.1531,-0.1506,-0.1448,-0.1428,-0.1393,-0.1374,-0.1518,-0.1449,-0.1458,-0.1488,-0.1461,-0.1449,-0.1459,-0.1407,-0.1409,-0.141,-0.1411,0,-0.1193,-0.1176,-0.1217,-0.1217,-0.125,-0.1237,-0.1278,-0.1285,-0.1302,-0.1384,-0.1351,-0.1366,-0.1411,-0.1341,-0.1314,-0.1277,-0.1268,-0.1256,-0.1275,-0.1292,-0.1263,-0.1208,-0.1042,0,0,0,0,0,-0.1099,-0.1075,-0.1069,-0.1067,-0.1098,-0.1114,-0.118,-0.1235,-0.1317,-0.1238,-0.1298,-0.1245,-0.1195,-0.1208,-0.1133,-0.1235,-0.127,-0.1145,-0.1266,-0.1324,-0.1342,-0.1322,0,0,0,0,0,0,-0.1039,-0.1038,-0.1022,-0.0941,-0.0918,-0.093,-0.0969,-0.1035,-0.1011,-0.1108,-0.1081,-0.1165,-0.1128,-0.12,-0.1099,-0.1104,-0.1157,-0.1171,-0.1168,-0.1315,-0.133,-0.1344,-0.133,0,0,0,0,0]},{"header":{"parameterUnit":"m.s-1","parameterCategory":2,"la1":30.2991,"la2":30.254,"lo1":-89.0895,"lo2":-89.0444,"dy":0.0017,"dx":0.0017,"nx":28,"ny":28,"refTime":"2025-07-23T21:00:00:Z","depth":"4","parameterNumber":3,"parameterNumberName":"V-component_of_CURRENTS"},"data":[0,0,0,0,0,0,0,0,0,0,0,0,0,0,0,0,0,0,0,0,0,0,0,0,0,0,0,0,0,0,0,0,0,0,0,0,0,0,0,0,0,0,0,0,0,0,0,0,0,0,0,0,0,0,0,0,0,0,-0.0273,-0.0273,0,-0.0248,-0.0247,-0.0247,-0.0241,-0.0241,-0.0241,-0.0242,-0.0246,-0.0246,-0.0246,0,0,0,0,0,0,0,0,0,0,0,0,0,-0.0322,-0.0321,-0.0273,-0.0273,-0.0272,-0.0248,-0.0247,-0.0247,-0.0241,-0.0241,-0.0241,-0.0242,-0.0246,-0.0246,-0.0246,0,0,0,0,0,0,0,0,0,0,0,0,0,-0.0299,-0.0321,-0.0273,-0.0267,-0.0266,-0.0248,-0.0247,-0.0247,-0.0241,-0.0241,-0.0242,-0.0242,-0.0246,-0.0246,-0.0246,-0.0238,0,0,-0.0245,-0.0245,0,0,0,0,0,0,0,0,-0.03,-0.0297,-0.0268,-0.0267,-0.0266,-0.0249,-0.0266,-0.0245,-0.0241,-0.025,-0.0242,-0.0242,-0.025,-0.0249,-0.0242,-0.0238,-0.0238,-0.0245,-0.0245,-0.0245,-0.0245,0,0,0,0,0,0,0,-0.0302,-0.0298,-0.0262,-0.0268,-0.0267,-0.0268,-0.0265,-0.0262,-0.0248,-0.0249,-0.0249,-0.0247,-0.0249,-0.0242,-0.0242,-0.0238,-0.0245,-0.0245,-0.0245,-0.0245,-0.0251,-0.0251,0,0,0,0,0,0,-0.0305,-0.0299,-0.0263,-0.0261,-0.0285,-0.0267,-0.0263,-0.0253,-0.0247,-0.0247,-0.0247,-0.0247,-0.0242,-0.0243,-0.0243,-0.0235,-0.0245,-0.0245,-0.0245,-0.0251,-0.0251,-0.0251,0,0,0,0,0,0,-0.0306,-0.0302,-0.0264,-0.0281,-0.0276,-0.0266,-0.0254,-0.0253,-0.0251,-0.0245,-0.0245,-0.0248,-0.0243,-0.0243,-0.0237,-0.0235,-0.0245,-0.0245,-0.025,-0.0251,-0.0251,-0.0219,0,0,0,0,0,0,-0.0308,-0.0302,-0.0305,-0.0281,-0.0276,-0.0261,-0.0254,-0.0252,-0.0249,-0.0249,-0.0246,-0.0246,-0.0243,-0.0238,-0.0237,-0.0235,-0.0244,-0.025,-0.0251,-0.0251,-0.0219,-0.0218,-0.0217,0,0,0,0,0,-0.0309,-0.0313,-0.0305,-0.0301,-0.0276,-0.0261,-0.0259,-0.0252,-0.0249,-0.0251,-0.0241,-0.0247,-0.0241,-0.0237,-0.0237,-0.0235,-0.025,-0.025,-0.0251,-0.022,-0.0218,-0.0217,0,0,0,0,0,0,-0.0341,-0.0311,-0.0302,-0.0298,-0.0284,-0.0261,-0.0266,-0.0255,-0.0247,-0.0249,-0.0241,-0.024,-0.024,-0.0244,-0.0239,-0.0241,-0.025,-0.0251,-0.0227,-0.0225,-0.0224,-0.0219,-0.0244,0,0,0,0,0,-0.0346,-0.0342,-0.0312,-0.0313,-0.0304,-0.0284,-0.028,-0.0271,-0.0257,-0.0254,-0.0248,-0.0245,-0.0241,-0.0238,-0.024,-0.0233,-0.0214,-0.0236,-0.0235,-0.0233,-0.0231,-0.0185,-0.0178,-0.0253,-0.0253,-0.0253,0,0,-0.0361,-0.0346,-0.0344,-0.032,-0.0308,-0.0295,-0.0282,-0.0276,-0.0265,-0.0257,-0.0246,-0.0242,-0.024,-0.0232,-0.0233,-0.0234,-0.0204,-0.0234,-0.0233,-0.0231,-0.0185,-0.0177,-0.017,-0.0254,-0.0254,-0.0254,0,0,-0.0385,-0.037,-0.037,-0.0354,-0.0335,-0.0316,-0.0314,-0.0288,-0.0277,-0.0264,-0.0254,-0.0239,-0.0243,-0.0224,-0.0218,-0.0212,-0.0201,-0.0227,-0.0207,-0.0162,-0.0155,-0.0148,-0.0113,-0.0103,-0.0221,-0.0221,-0.0221,0,-0.0405,-0.0394,-0.0371,-0.0362,-0.0354,-0.0325,-0.0319,-0.0297,-0.0274,-0.0261,-0.0265,-0.0238,-0.0234,-0.0203,-0.0201,-0.0206,-0.0184,-0.0209,-0.0157,-0.015,-0.0144,-0.0109,-0.0099,-0.022,-0.022,-0.022,-0.022,0,-0.0418,-0.0412,-0.0412,-0.0386,-0.0373,-0.0367,-0.0328,-0.0315,-0.0299,-0.0273,-0.0247,-0.0225,-0.0209,-0.0205,-0.0199,-0.0156,-0.0157,-0.0161,-0.0154,-0.0134,-0.0099,-0.0089,-0.0218,-0.0218,-0.0219,-0.0219,0,0,-0.0448,-0.0426,-0.0425,-0.0426,-0.0384,-0.0382,-0.0351,-0.0316,-0.0304,-0.0267,-0.0243,-0.0209,-0.0192,-0.0184,-0.0167,-0.0121,-0.0054,-0.0122,-0.012,-0.0073,0.0043,0.0014,0.0022,-0.0044,-0.0042,-0.0041,0.0051,0,-0.0464,-0.0471,-0.0442,-0.0446,-0.0444,-0.0403,-0.0381,-0.0345,-0.0315,-0.0285,-0.0229,-0.0212,-0.0184,-0.0181,-0.0122,-0.0082,-0.0027,-0.0079,0.0005,0.0007,-0.001,0.0033,-0.0035,0.0059,0.0061,0.0063,0.0064,0,-0.0474,-0.0482,-0.0494,-0.0484,-0.0477,-0.0474,-0.0443,-0.0418,-0.0351,-0.0326,-0.027,-0.0233,-0.0157,-0.0149,-0.0024,-0.0059,-0.0004,0.0038,0.0042,0.0011,-0.0003,0.0032,0.0083,0.0081,0.008,0.0079,0.0077,0,-0.0519,-0.0513,-0.0534,-0.053,-0.0509,-0.051,-0.0496,-0.044,-0.043,-0.0356,-0.0347,-0.0237,-0.0207,-0.0103,-0.0009,-0.0015,0.0121,0.0122,0.0157,0.0155,0.014,0.0131,0.0218,0.0218,0.0218,0.0217,0.0217,0,-0.0541,-0.0558,-0.0568,-0.0583,-0.0617,-0.057,-0.0589,-0.055,-0.0501,-0.0492,-0.0382,-0.0355,-0.0196,-0.0102,-0.0004,0.0107,0.0132,0.0172,0.0183,0.0149,0.0141,0.0147,0.0138,0.0221,0.022,0.0219,0.0219,0,-0.0583,-0.0583,-0.0622,-0.0632,-0.0645,-0.0673,-0.0681,-0.0677,-0.062,-0.0605,-0.0586,-0.0443,-0.0306,-0.0149,0.0017,0.0091,0.0208,0.0239,0.0192,0.0196,0.0213,0.0204,0.03,0.0299,0.0299,0.0299,0.0299,0,-0.0603,-0.0628,-0.0688,-0.0723,-0.0737,-0.0776,-0.0791,-0.0753,-0.0747,-0.0667,-0.0658,-0.0519,-0.0414,-0.0182,-0.0017,0.0194,0.0211,0.0271,0.0255,0.0224,0.0225,0.0216,0.0208,0.0299,0.0299,0.0299,0.0299,0,-0.0647,-0.0675,-0.071,-0.0791,-0.0836,-0.0881,-0.0902,-0.0911,-0.0849,-0.0822,-0.0715,-0.057,-0.041,-0.0199,-0.0032,0.0111,0.0236,0.0271,0.0272,0.0257,0.0225,0.0224,0.0215,0.0299,0.0299,0.0299,0.0299,0,-0.0683,-0.0726,-0.0776,-0.0838,-0.0901,-0.0934,-0.0954,-0.0928,-0.0916,-0.082,-0.0798,-0.0597,-0.0481,-0.0244,-0.0098,0.0055,0.0088,0.0121,0.0131,0.0133,0.0054,-0.0014,0.0009,0,0,0,0,0,-0.0712,-0.0751,-0.081,-0.0875,-0.093,-0.096,-0.0987,-0.0984,-0.0958,-0.0896,-0.084,-0.0687,-0.0432,-0.0311,-0.0162,-0.0102,0.0112,0.0074,0.0153,0.0297,0.0297,0.023,0,0,0,0,0,0,-0.0734,-0.0792,-0.0811,-0.0873,-0.0915,-0.0969,-0.0984,-0.0967,-0.0924,-0.0881,-0.0739,-0.0676,-0.0419,-0.0516,-0.0166,-0.0119,-0.0056,0.0194,0.0196,0.0296,0.0297,0.0297,0.0229,0,0,0,0,0]}]]